Погода в Глазове

Россия / Удмуртская Республика     58°08′26″N   52°40′27″E
темп.,
°C
ветер,
м/с
пор.,
м/с
влажн.,
%
обл.,
%
осадки,
мм/ч
давл.,
гПа
погр.,
м
6 мая, чт
чт601:00+3з6118294 0.1 10051018
04:00+3з51076100 0.1 1007986
07:00+3зсз5972100 0.0 1010971
10:00+6з695481 0.0 10111475
13:00+9з68466 0.0 10131578
16:00+11з57465 0.0 10141535
19:00+10зюз37616 0.0 1014406
22:00+6ююз228695 0.0 101546
7 мая, пт
пт701:00+6ююв2118897 0.0 1015244
04:00+7ю3129495 0.0 1015296
07:00+10ююз4128094 0.0 1015391
10:00+15ююз6115675 0.0 10141552
13:00+17ююз6104597 0.0 10142419
16:00+18ююз51044100 0.0 10142568
19:00+14юз61159100 0.4 1014901
22:00+11зюз3884100 0.8 1016426
8 мая, сб
сб801:00+9зсз2588100 0.8 1018348
04:00+6сз229591 0.8 102041
07:00+9ссв12775 0.0 1021223
10:00+13в23502 0.0 10201142
13:00+17юв23386 0.0 10191740
16:00+16ю455234 0.0 10181538
19:00+15ююв25647 0.1 1018236
22:00+11вюв397965 0.1 1017203
9 мая, вс
вс901:00+12юв31073100 0.0 1017284
04:00+9юв311825 0.0 1017257
07:00+12ююв4116977 0.0 1017359
10:00+18ю694842 0.0 10161438
13:00+21ю6836100 0.0 10162606
16:00+20ююз4838100 0.0 10162647
19:00+16ю0064100 0.0 101728
22:00+15юв2367100 0.0 101767
10 мая, пн
пн1001:00+12зсз3588100 0.0 1019339
04:00+8сз3688100 0.7 1022378
07:00+8с2690100 2.1 1023421
10:00+8сз3686100 3.1 1025688
13:00+7ссз2586100 2.2 1026651
16:00+10сз246494 2.4 10261160
19:00+11з11625 0.0 102625
22:00+7зюз117338 0.0 102810